Regional Weather Roundup
Issued by NWS Memphis, TN

Home | Current Version | Previous Version | Text Only | Print | Product List | Glossary On
Versions: 1 2 3 4 5 6 7 8 9 10 11 12 13 14 15 16 17 18 19 20 21 22 23 24 25 26 27 28 29 30 31 32 33 34 35 36 37 38 39 40 41 42 43 44 45 46 47 48 49 50
000
ASUS44 KMEG 230910
RWRMEG
MEMPHIS CWA HOURLY WEATHER ROUNDUP
NATIONAL WEATHER SERVICE MEMPHIS TN
400 AM CDT SAT JUL 23 2016

...WEST TENNESSEE...

CITY           SKY/WX    TMP DP  RH WIND       PRES   REMARKS
MEMPHIS INTL   CLOUDY    82  73  74 NE8       29.98R THUNDER
NWS MEMPHIS      N/A     77 N/A N/A MISG        N/A
JACKSON        CLOUDY    76  73  91 SW3       29.98F
LEXINGTON      MOCLDY    73  73 100 CALM      29.99S
DYERSBURG      MOCLDY    73  72  94 MISG      29.98F
UNION CITY     CLEAR     73  73 100 CALM      29.97S
PARIS          CLEAR     72  72 100 CALM      29.99S


...EASTERN ARKANSAS...

CITY           SKY/WX    TMP DP  RH WIND       PRES   REMARKS
JONESBORO      CLEAR     78  75  90 E3        29.96R
WEST MEMPHIS   CLOUDY    79  74  84 E10       29.97R
BATESVILLE     PTCLDY    73  72  94 CALM      29.98R
NEWPORT        PTCLDY    78  78 100 NW3       29.97S
WALNUT RIDGE   PTCLDY    77  73  88 CALM      29.96R
BLYTHEVILLE    CLOUDY    76  73  91 CALM      29.98R
SEARCY         PTCLDY    78  77  96 NW3       29.97S
STUTTGART      CLEAR     81  73  78 CALM      29.96S
PINE BLUFF     CLEAR     77  76  96 S6        29.96S
MONTICELLO     CLEAR     78  75  90 W5        29.96S


...NORTH MISSISSIPPI...

CITY           SKY/WX    TMP DP  RH WIND       PRES   REMARKS
TUPELO         PTCLDY    74  71  91 S6        29.98R
OXFORD         PTCLDY    77  72  83 S3        30.00S
BATESVILLE     PTCLDY    76  72  88 CALM      29.98S
TUNICA         PTCLDY    77  73  88 CALM      29.97S
CLARKSDALE     CLEAR     79  79 100 CALM      29.97R
CORINTH        PTCLDY    75  73  94 CALM      29.98S
GREENWOOD      PTCLDY    76  72  87 SW3       29.97S
COLUMBUS       PTCLDY    73  73 100 E5        29.98S
GOLDEN TRIANGL PTCLDY    73  68  83 CALM      29.98S


...SOUTHEAST MISSOURI...

CITY           SKY/WX    TMP DP  RH WIND       PRES   REMARKS
KENNETT        CLOUDY    77  75  94 CALM      29.96S
WEST PLAINS    CLEAR     76  72  87 CALM      30.03F
POPLAR BLUFF   MOCLDY    77  74  90 CALM      29.98R
CAPE GIRARDEAU CLOUDY    74  73  97 CALM      29.98R


...NORTHWEST ALABAMA...

CITY           SKY/WX    TMP DP  RH WIND       PRES   REMARKS
MUSCLE SHOALS  PTCLDY    74  71  91 CALM      30.00S


...MIDDLE TENNESSEE...

CITY           SKY/WX    TMP DP  RH WIND       PRES   REMARKS
NASHVILLE      MOCLDY    77  72  84 CALM      30.00F
CLARKSVILLE    CLOUDY    75  72  90 W3        29.99F
COLUMBIA       CLEAR    N/A N/A N/A CALM      30.00S


...WESTERN KENTUCKY...

CITY           SKY/WX    TMP DP  RH WIND       PRES   REMARKS
PADUCAH        CLOUDY    75  73  93 CALM      29.97F
FORT CAMPBELL  CLOUDY    75  73  93 SW3       29.99F


...CENTRAL ARKANSAS...

CITY           SKY/WX    TMP DP  RH WIND       PRES   REMARKS
LITTLE ROCK    PTCLDY    82  77  84 CALM      29.96R HX  90


SKY/WX REPORTED AS FAIR MEANS FEW OR NO CLOUDS BELOW
12 THOUSAND FEET.




USA.gov is the U.S. government's official web portal to all federal, state and local government web resources and services.